This is the latest recevied weather packets stored in our database for station/object IW2MUC-12. If no packets are shown the sender has not sent any weather packets the latest 10 day(s).
| Time | Temp. | Humidity | Pressure | Rain* | Wind** | Luminosity | Snow |
|---|---|---|---|---|---|---|---|
| 1787988967 | 25° C | 69% | 988 hPa | - | - | - | - |
| 1787988363 | 25° C | 70% | 988 hPa | - | - | - | - |
| 1787987759 | 24.44° C | 68% | 988 hPa | - | - | - | - |
| 1787987155 | 23.89° C | 66% | 988 hPa | - | - | - | - |
| 1787986551 | 23.33° C | 66% | 988 hPa | - | - | - | - |
| 1787985947 | 23.33° C | 67% | 988 hPa | - | - | - | - |
| 1787955644 | 21.11° C | 68% | 987 hPa | - | - | - | - |
| 1787955038 | 21.11° C | 71% | 986 hPa | - | - | - | - |
| 1787953822 | 21.67° C | 67% | 991 hPa | - | - | - | - |
| 1787953218 | 21.67° C | 67% | 991 hPa | - | - | - | - |
| 1787952614 | 21.67° C | 67% | 991 hPa | - | - | - | - |
| 1787952010 | 21.67° C | 67% | 991 hPa | - | - | - | - |
| 1787950802 | 21.67° C | 67% | 991 hPa | - | - | - | - |
| 1787950198 | 21.67° C | 67% | 991 hPa | - | - | - | - |
| 1787949594 | 21.67° C | 67% | 991 hPa | - | - | - | - |
| 1787948990 | 22.22° C | 66% | 991 hPa | - | - | - | - |
| 1787948386 | 22.22° C | 66% | 991 hPa | - | - | - | - |
| 1787947178 | 22.22° C | 66% | 991 hPa | - | - | - | - |
| 1787946574 | 22.22° C | 65% | 991 hPa | - | - | - | - |
| 1787945970 | 22.22° C | 65% | 992 hPa | - | - | - | - |
| 1787945366 | 22.78° C | 65% | 992 hPa | - | - | - | - |
| 1787944762 | 22.78° C | 64% | 992 hPa | - | - | - | - |
| 1787943554 | 23.33° C | 63% | 992 hPa | - | - | - | - |
| 1787942952 | 23.33° C | 63% | 992 hPa | - | - | - | - |
| 1787942346 | 23.89° C | 63% | 992 hPa | - | - | - | - |
* Rain since midnight (hover to see other rain measurements)
** Current wind speed in m/s (hover to see current wind gust speed)